#timestamp,LO_Frequency,Hit,StdDev 
1460192415.3,286046995.3,N
1460192435.1,286046999.2,N
1460192436.0,286046999.2,N
1460192455.8,286046995.0,N
1460192475.6,286046996.2,N
1460192495.5,286046993.1,Y
1460192515.3,286046992.4,P
1460192535.2,286046994.0,N
1460192555.9,286046997.6,N
1460192575.7,286046999.1,N
1460192595.5,286047002.8,N
1460192615.4,286047002.2,N
1460192635.2,286047002.1,N
1460192655.0,286047005.1,N
1460192655.9,286047005.1,N
1460192675.8,286047009.0,N
1460192695.6,286047011.3,N
1460192715.4,286047013.1,N
1460192735.3,286047012.3,N
1460192755.1,286047012.1,N
1460192756.0,286047012.1,N
1460192775.8,286047011.6,N
1460192795.7,286047013.4,N
1460192815.5,286047013.2,N
1460192835.3,286047013.8,N
1460192855.2,286047008.6,N
1460192875.9,286047010.3,N
1460192895.7,286047008.9,N
1460192915.5,286047011.8,N
1460192935.4,286047011.6,N
1460192955.2,286047009.0,N
1460192975.0,286047000.0,N
1460192975.9,286047000.0,N
1460192995.8,286046997.1,N
1460193015.6,286046998.9,N
1460193035.4,286047000.3,N
1460193055.3,286047001.9,N
1460193075.1,286047002.5,N
1460193076.0,286047002.5,N
1460193095.8,286047002.6,N
1460193115.7,286046998.5,N
1460193135.5,286047000.8,N
1460193155.3,286046998.8,N
1460193175.2,286046997.2,N
1460193195.9,286046999.5,N
1460193215.7,286046996.8,N
1460193235.6,286046999.6,N
1460193255.4,286046996.8,N
1460193275.2,286046997.6,N
1460193295.0,286046997.9,N
1460193296.0,286046997.9,N
1460193315.8,286046997.9,N
1460193335.6,286047000.7,N
1460193355.4,286047001.4,N
1460193375.3,286047005.8,N
1460193395.1,286047003.4,N
1460193415.8,286047003.0,N
1460193435.7,286047001.3,N
1460193455.5,286047003.8,N
1460193475.3,286047002.9,N
1460193495.2,286047002.0,N
1460193515.9,286047005.5,N
1460193535.7,286047005.3,N
1460193555.6,286047005.1,N
1460193575.4,286047006.9,N
1460193595.2,286047005.2,N
1460193615.1,286047003.5,N
1460193616.0,286047003.5,N
1460193635.8,286047001.7,N
1460193655.6,286047002.7,N
1460193675.5,286047002.0,N
1460193695.3,286047000.6,N
1460193715.1,286047002.4,N
1460193735.8,286047004.1,N
1460193755.7,286047000.6,N
1460193775.5,286047002.5,N
1460193795.3,286047002.2,N
1460193815.2,286047000.8,N
1460193835.9,286047000.5,N
1460193855.7,286047000.1,N
1460193875.6,286046998.5,N
1460193895.4,286046999.1,N
1460193915.2,286046997.7,N
1460193935.1,286046995.3,N
1460193936.0,286046995.3,N
1460193955.8,286046997.7,N
1460193975.6,286047001.0,N
1460193995.5,286047002.2,N
1460194015.3,286047002.0,N
1460194035.1,286047001.8,N
1460194055.8,286047001.8,N
1460194075.7,286047000.9,N
1460194095.5,286047000.0,N
1460194115.3,286047002.8,N
1460194135.2,286046999.7,N
1460194155.0,286047000.4,N
1460194155.9,286047000.4,N
1460194175.7,286046997.9,N
1460194195.6,286046997.1,N
1460194215.4,286046999.5,N
1460194235.2,286046999.5,N
1460194255.1,286046996.6,N
1460194256.0,286046996.6,N
1460194275.8,286046997.6,N
1460194295.6,286047000.5,N
1460194315.5,286046998.0,N
1460194335.3,286046997.9,N
1460194355.1,286046996.5,N
1460194375.9,286047001.2,N
1460194395.7,286047000.5,N
1460194415.5,286046998.3,N
1460194435.4,286046999.6,N
1460194455.2,286046998.3,N
1460194475.0,286047003.8,N
1460194475.9,286047003.8,N
1460194495.7,286046999.8,N
1460194515.6,286047000.4,N
1460194535.4,286047000.3,N
1460194555.2,286047000.9,N
1460194575.1,286047002.7,N
1460194576.0,286047002.7,N
1460194595.8,286046997.2,N
1460194615.6,286046998.3,N
1460194635.5,286047000.5,N
1460194655.3,286046999.8,N
1460194675.1,286047002.7,N
1460194695.9,286047001.1,N
1460194715.7,286046999.4,N
1460194735.5,286046998.5,N
1460194755.4,286046998.6,N
1460194775.2,286046996.9,N
1460194795.0,286046997.7,N
1460194795.9,286046997.7,N
1460194815.8,286046996.7,N
1460194835.6,286046999.4,N
1460194855.4,286046998.3,N
1460194875.2,286046996.8,N
1460194895.1,286046997.0,N
1460194896.0,286046997.0,N
1460194915.8,286047000.8,N
1460194935.6,286046995.2,N
1460194955.5,286046993.4,N
1460194975.3,286046996.8,N
1460194995.1,286046999.1,N
1460195015.9,286047001.7,N
1460195035.7,286047001.8,N
1460195055.5,286047004.0,N
1460195075.4,286047006.2,N
1460195095.2,286047003.7,N
1460195115.0,286047000.2,N
1460195115.9,286047000.2,N
1460195135.8,286047004.3,N
1460195155.6,286047004.5,N
1460195175.4,286047007.5,N
1460195195.3,286047007.1,N
1460195215.1,286047006.1,N
1460195235.8,286047006.8,N
1460195255.7,286047010.4,N
1460195275.5,286047009.3,N
1460195295.3,286047008.7,N
1460195315.2,286047009.4,N
1460195335.9,286047012.6,N
1460195355.7,286047011.5,N
1460195375.6,286047012.9,N
1460195395.4,286047014.1,N
1460195415.2,286047019.9,Y
1460195435.1,286047011.3,P
1460195436.0,286047011.3,P
1460195455.8,286047010.3,N
1460195475.6,286047008.0,N
1460195495.5,286047013.6,Y
1460195515.3,286046997.6,P
1460195535.1,286046994.6,N
1460195555.9,286046994.2,N
1460195575.7,286046992.0,N
1460195595.5,286046990.8,N
1460195615.3,286046994.0,N
1460195635.2,286046995.2,N
1460195655.0,286046997.4,N
1460195655.9,286046997.4,N
1460195675.7,286046996.7,N
1460195695.6,286047001.2,N
1460195715.4,286046998.9,N
1460195735.2,286046997.7,N
1460195755.1,286046996.4,N
1460195756.0,286046996.4,N
1460195775.8,286046994.7,N
1460195795.6,286046996.1,N
1460195815.5,286046999.6,N
1460195835.3,286046996.2,N
1460195855.1,286046991.8,N
1460195875.9,286046993.4,N
1460195895.7,286046992.4,N
1460195915.5,286046993.2,N
1460195935.3,286046992.9,N
1460195955.2,286046991.9,N
1460195975.0,286046992.9,N
1460195975.9,286046992.9,N
1460195995.7,286046993.4,N
